Weather in Pozdnyakovo

Russia / Nizhny Novgorod Oblast'     55°37′56″N   42°14′24″E
temp.,
°C
wind,
m/s
gust,
m/s
humid.,
%
clouds,
%
prec.,
mm/h
press.,
hPa
HPBL,
m
13 june, sun
sun1300:00+14sse2495100 0.0 100873
03:00+14sse239672 0.0 100856
06:00+16sse249444 0.0 1008160
09:00+20sse357512 0.1 1007637
12:00+22s456716 1.6 10071171
15:00+22ssw347768 4.8 10071043
18:00+21wsw248329 1.4 1007327
21:00+16sw22938 1.8 100931
14 june, mon
mon1400:00+15sw239513 0.0 101057
03:00+14sw23964 0.0 101265
06:00+16ssw2393100 0.0 1013122
09:00+20sw2481100 0.0 1014380
12:00+24sw336053 0.0 10151125
15:00+25sw23551 0.0 10151406
18:00+23sw24765 0.4 1014145
21:00+19ssw128443 0.7 101511
15 june, tue
tue1500:00+17ssw119012 0.0 101511
03:00+15ssw11920 0.0 101511
06:00+18ssw118753 0.0 101477
09:00+24sse016689 0.0 1014499
12:00+26e225537 1.1 10131353
15:00+27ne115095 1.1 10111704
18:00+22e3578100 0.4 1010119
21:00+19e2289100 0.6 100928
16 june, wed
wed1600:00+17ne2394100 0.0 100856
03:00+16n119899 0.4 100815
06:00+17wnw1195100 0.1 1008177
09:00+21nw2478100 0.1 1008623
12:00+23nnw477129 1.8 10081140
15:00+23nnw5963100 2.4 10091111
18:00+21nnw610661 0.0 1011935
21:00+16nnw412640 0.0 1014433
17 june, thu
thu1700:00+13nnw310700 0.0 1016214
03:00+11nnw39810 0.0 1018162
06:00+14nnw310705 0.0 1019289
09:00+19nnw47480 0.0 1021879
12:00+21n57400 0.0 10221889
15:00+22n56430 0.0 10222000
18:00+21n36560 0.0 1023912
21:00+15n35750 0.0 102482